This is the latest recevied weather packets stored in our database for station/object KF7ROW. If no packets are shown the sender has not sent any weather packets the latest 10 day(s).
| Time | Temp. | Humidity | Pressure | Rain* | Wind** | Luminosity | Snow |
|---|---|---|---|---|---|---|---|
| 1777931122 | 15° C | 83% | 1018.6 hPa | 0 mm | - | 385 W/m² | - |
| 1777930819 | 15° C | 84% | 1018.9 hPa | 0 mm | - | 374 W/m² | - |
| 1777930515 | 15° C | 84% | 1018.9 hPa | 0 mm | - | 389 W/m² | - |
| 1777930213 | 15° C | 83% | 1018.7 hPa | 0 mm | - | 370 W/m² | - |
| 1777929908 | 15° C | 84% | 1018.7 hPa | 0 mm | - | 370 W/m² | - |
| 1777929606 | 15° C | 84% | 1018.8 hPa | 0 mm | - | 352 W/m² | - |
| 1777929303 | 15° C | 84% | 1018.9 hPa | 0 mm | - | 364 W/m² | - |
| 1777929000 | 15° C | 84% | 1018.8 hPa | 0 mm | - | 366 W/m² | - |
| 1777928697 | 15° C | 83% | 1018.9 hPa | 0 mm | - | 364 W/m² | - |
| 1777928393 | 14.44° C | 84% | 1018.8 hPa | 0 mm | - | 363 W/m² | - |
| 1777928091 | 14.44° C | 85% | 1018.9 hPa | 0 mm | - | 352 W/m² | - |
| 1777927789 | 14.44° C | 86% | 1019 hPa | 0 mm | - | 322 W/m² | - |
| 1777927487 | 15° C | 85% | 1019 hPa | 0 mm | - | 306 W/m² | - |
| 1777927186 | 14.44° C | 84% | 1019 hPa | 0 mm | - | 306 W/m² | - |
| 1777926883 | 14.44° C | 86% | 1019 hPa | 0 mm | - | 317 W/m² | - |
| 1777926579 | 14.44° C | 85% | 1019 hPa | 0 mm | - | 329 W/m² | - |
| 1777926276 | 14.44° C | 85% | 1019.1 hPa | 0 mm | - | 318 W/m² | - |
| 1777925972 | 14.44° C | 85% | 1019 hPa | 0 mm | - | 345 W/m² | - |
| 1777925670 | 14.44° C | 85% | 1018.8 hPa | 0 mm | - | 332 W/m² | - |
| 1777925367 | 14.44° C | 85% | 1018.9 hPa | 0 mm | - | 320 W/m² | - |
| 1777925064 | 14.44° C | 86% | 1018.9 hPa | 0 mm | - | 346 W/m² | - |
| 1777924761 | 14.44° C | 86% | 1018.8 hPa | 0 mm | - | 386 W/m² | - |
| 1777924457 | 15° C | 85% | 1018.9 hPa | 0 mm | - | 409 W/m² | - |
| 1777924153 | 15° C | 84% | 1018.7 hPa | 0 mm | - | 400 W/m² | - |
| 1777923849 | 15° C | 83% | 1018.8 hPa | 0 mm | - | 346 W/m² | - |
* Rain latest hour (hover to see other rain measurements)
** Current wind speed in m/s (hover to see current wind gust speed)